Change the Weather History Date:

Monday, November 19, 2012

  Actual Average Record
Temperature  
Mean Temperature 55 °F -  
Max Temperature 62 °F 60 °F 73 °F (2007)
Min Temperature 48 °F 41 °F 19 °F (2014)
Degree Days  
Heating Degree Days 10    
Growing Degree Days 5 (Base 50)    
Moisture  
Dew Point 43 °F    
Average Humidity 67    
Maximum Humidity 83    
Minimum Humidity 55    
Precipitation  
Precipitation 0.00 in - - ()
Sea Level Pressure  
Sea Level Pressure 30.28 in    
Wind  
Wind Speed 11 mph (NE)    
Max Wind Speed 17 mph    
Max Gust Speed 24 mph    
Visibility 10 miles    
Events      
Averages and records for this station are not official NWS values.
T = Trace of Precipitation, MM = Missing Value Source: NWS Daily Summary

Daily Weather History Graph

Daily Weather History Graph

Search for Another Location

Airport or City:

Trip Planner

Search our weather history database for the weather conditions in past years. The results will help you decide how hot, cold, wet, or windy it might be!

Date:

Astronomy

Nov. 19, 2012 Rise Set
Actual Time 7:07 AM EST 5:21 PM EST
Civil Twilight 6:40 AM EST 5:48 PM EST
Nautical Twilight 6:10 AM EST 6:19 PM EST
Astronomical Twilight 5:39 AM EST 6:49 PM EST
Moon 12:15 PM EST (11/19) 11:41 PM EST (11/19)
Length of Visible Light 11h 07m
Length of Day
10h 13m
Waxing Crescent, 40% of the Moon is Illuminated
Nov 19
Waxing Crescent
Nov 20
First Quarter
Nov 28
Full
Dec 6
Last Quarter
Dec 13
New

Hourly Weather History & Observations

Time (EST) Temp. Dew Point Humidity Pressure Visibility Wind Dir Wind Speed Gust Speed Precip Events Conditions
12:53 AM 48.0 °F 37.9 °F 68% 30.34 in 10.0 mi NNE 8.1 mph - N/A   Partly Cloudy
1:39 AM 50.0 °F 37.4 °F 62% 30.33 in 10.0 mi NNE 9.2 mph - N/A   Overcast
1:53 AM 50.0 °F 37.0 °F 61% 30.32 in 10.0 mi NNE 12.7 mph - N/A   Overcast
2:28 AM 51.8 °F 37.4 °F 58% 30.32 in 10.0 mi NNE 16.1 mph 21.9 mph N/A   Overcast
2:53 AM 51.1 °F 37.9 °F 61% 30.31 in 10.0 mi NNE 17.3 mph - N/A   Overcast
3:53 AM 51.1 °F 39.9 °F 66% 30.30 in 10.0 mi NNE 13.8 mph - N/A   Overcast
4:53 AM 51.1 °F 42.1 °F 71% 30.30 in 10.0 mi NNE 13.8 mph - N/A   Overcast
5:53 AM 51.1 °F 42.1 °F 71% 30.31 in 10.0 mi NNE 15.0 mph 24.2 mph N/A   Mostly Cloudy
6:32 AM 51.8 °F 42.8 °F 71% 30.31 in 10.0 mi NNE 15.0 mph 20.7 mph N/A   Overcast
6:53 AM 51.1 °F 43.0 °F 74% 30.31 in 10.0 mi NNE 16.1 mph - N/A   Overcast
7:53 AM 52.0 °F 44.1 °F 74% 30.32 in 10.0 mi NNE 11.5 mph - N/A   Overcast
8:53 AM 53.1 °F 43.0 °F 69% 30.33 in 10.0 mi NNE 11.5 mph - N/A   Overcast
9:53 AM 55.0 °F 44.1 °F 67% 30.33 in 10.0 mi NE 12.7 mph - N/A   Overcast
10:18 AM 55.4 °F 44.6 °F 67% 30.31 in 10.0 mi NE 13.8 mph 21.9 mph N/A   Mostly Cloudy
10:53 AM 57.9 °F 45.0 °F 62% 30.30 in 10.0 mi NE 16.1 mph - N/A   Mostly Cloudy
11:53 AM 60.1 °F 45.0 °F 57% 30.30 in 10.0 mi NE 11.5 mph - N/A   Overcast
12:16 PM 60.8 °F 44.6 °F 55% 30.28 in 10.0 mi NNE 9.2 mph - N/A   Overcast
12:53 PM 61.0 °F 46.0 °F 58% 30.26 in 10.0 mi ENE 9.2 mph - N/A   Overcast
1:53 PM 62.1 °F 46.0 °F 56% 30.23 in 10.0 mi NE 10.4 mph - N/A   Overcast
2:53 PM 62.1 °F 46.9 °F 58% 30.23 in 10.0 mi East 6.9 mph - N/A   Overcast
3:53 PM 61.0 °F 46.9 °F 60% 30.22 in 10.0 mi East 6.9 mph - N/A   Overcast
4:53 PM 60.1 °F 46.0 °F 60% 30.22 in 10.0 mi ENE 6.9 mph - N/A   Clear
5:53 PM 57.0 °F 46.0 °F 67% 30.22 in 10.0 mi ENE 4.6 mph - N/A   Clear
6:53 PM 55.9 °F 46.0 °F 69% 30.22 in 10.0 mi ENE 4.6 mph - N/A   Clear
7:53 PM 55.0 °F 46.0 °F 72% 30.22 in 10.0 mi ENE 3.5 mph - N/A   Clear
8:53 PM 53.1 °F 46.0 °F 77% 30.23 in 10.0 mi NE 4.6 mph - N/A   Clear
9:53 PM 52.0 °F 45.0 °F 77% 30.21 in 10.0 mi NE 5.8 mph - N/A   Clear
10:53 PM 51.1 °F 46.0 °F 83% 30.22 in 10.0 mi NNE 4.6 mph - N/A   Overcast
11:53 PM 51.1 °F 46.0 °F 83% 30.20 in 10.0 mi NE 5.8 mph - N/A   Overcast